User: anonymous   Login
Location: Unspecified
(0.0000°N, 0.0000°E)
Time: 18:54:04
(UTC+00:00)
Language:

Transat O-11 - Orbit

View from above orbital plane
View from above orbital plane
View from above satellite
View from above satellite

Ground track
Ground track

The orbit data is extracted from the following two-line orbital elements,

1 10457U 77106A   18174.95586169  .00000045  00000-0  55174-4 0  9993
2 10457  89.7517 163.0805 0026941 136.5142 251.2965 13.48589743999844
Epoch (UTC): 23 June 2018 22:56:26
Eccentricity: 0.0026941
inclination: 89.7517°
perigee height: 1057 km
apogee height: 1097 km
right ascension of ascending node: 163.0805°
argument of perigee: 136.5142°
revolutions per day: 13.48589743
mean anomaly at epoch: 251.2965°
orbit number at epoch: 99984

The dashed part of the orbit path shows where the satellite is in the earth's shadow,  

DLR